EW3230 Weather Reports


Display with metric or nautical units.
time (UTC)temp
F
wind
direction
speed
MPH
gust
MPH
rain 1hr
in
rain 24hr
in
rain mn
in
humidity
%
barometer
mb
20210410151423 58 118 2.0 5.0 0.00 0.00 0.00 78 1016.2
20210410150558 59 115 2.0 5.0 0.00 0.00 0.00 76 1016.3
20210410150044 59 229 2.0 6.0 0.00 0.00 0.00 78 1016.6
20210410144420 59 114 2.0 6.0 0.00 0.00 0.00 78 1016.7
20210410142813 57 109 1.0 5.0 0.00 0.00 0.00 79 1016.9
20210410141416 56 212 1.0 3.0 0.00 0.00 0.00 83 1017.0
20210410140449 54 124 1.0 5.0 0.00 0.00 0.00 86 1017.1
20210410135925 54 115 1.0 4.0 0.00 0.00 0.00 85 1017.1
20210410134421 55 101 0.0 2.0 0.00 0.00 0.00 83 1017.1
20210410133418 54 212 0.0 2.0 0.00 0.00 0.00 84 1017.0
20210410132832 53 272 0.0 2.0 0.00 0.00 0.00 86 1017.2
20210410131405 53 186 0.0 1.0 0.00 0.00 0.00 88 1017.3
20210410130407 52 129 0.0 1.0 0.00 0.00 0.00 90 1017.1
20210410124409 51 191 0.0 2.0 0.00 0.00 0.00 94 1017.2
20210410122946 49 233 0.0 3.0 0.00 0.00 0.00 96 1017.3
20210410121354 49 208 0.0 3.0 0.00 0.00 0.00 97 1017.2
20210410120355 47 171 0.0 2.0 0.00 0.00 0.00 97 1017.2
20210410115839 46 208 0.0 2.0 0.00 0.00 0.00 97 1017.2
20210410114358 46 215 0.0 2.0 0.00 0.00 0.00 97 1017.2
20210410113357 45 201 0.0 2.0 0.00 0.00 0.00 97 1017.0
20210410112736 45 111 0.0 2.0 0.00 0.00 0.00 97 1016.9
20210410111353 45 197 0.0 1.0 0.00 0.00 0.00 97 1017.1
20210410110350 44 197 0.0 1.0 0.00 0.00 0.00 97 1017.5
20210410105752 44 200 0.0 0.0 0.00 0.00 0.00 97 1017.6
20210410104348 44 201 0.0 0.0 0.00 0.00 0.00 97 1017.8
20210410103352 44 202 0.0 0.0 0.00 0.00 0.00 97 1017.9
20210410102755 44 201 0.0 0.0 0.00 0.00 0.00 97 1017.8
20210410101351 44 201 0.0 0.0 0.00 0.00 0.00 97 1018.0
20210410100354 44 201 0.0 0.0 0.00 0.00 0.00 97 1018.1
20210410095840 44 201 0.0 1.0 0.00 0.00 0.00 97 1018.2
20210410094347 44 214 0.0 1.0 0.00 0.00 0.00 97 1018.4
20210410093347 44 214 0.0 2.0 0.00 0.00 0.00 97 1018.4
20210410092635 44 229 0.0 1.0 0.00 0.00 0.00 97 1018.3
20210410091354 43 229 0.0 1.0 0.00 0.00 0.00 96 1018.3
20210410090348 43 232 0.0 2.0 0.00 0.00 0.00 96 1018.3
20210410085741 43 242 0.0 2.0 0.00 0.00 0.00 96 1018.3
20210410084347 43 256 0.0 2.0 0.00 0.00 0.00 96 1018.3
20210410083348 43 203 0.0 3.0 0.00 0.00 0.00 96 1018.4
20210410082547 43 238 0.0 1.0 0.00 0.00 0.00 96 1018.5
20210410081347 43 221 0.0 2.0 0.00 0.00 0.00 96 1018.4
20210410080422 43 204 0.0 2.0 0.00 0.00 0.00 96 1018.4
20210410075830 43 192 0.0 1.0 0.00 0.00 0.00 96 1018.4
20210410074344 43 214 0.0 2.0 0.00 0.00 0.00 96 1018.4
20210410073345 43 217 0.0 2.0 0.00 0.00 0.00 96 1018.4
20210410072633 43 204 0.0 3.0 0.00 0.00 0.00 96 1018.6
20210410071346 42 214 0.0 2.0 0.00 0.00 0.00 96 1018.7
20210410070343 42 219 0.0 1.0 0.00 0.00 0.00 96 1018.6
20210410065817 42 208 0.0 2.0 0.00 0.00 0.00 96 1018.9
20210410064353 42 232 0.0 3.0 0.00 0.00 0.00 96 1019.0
20210410063545 42 208 1.0 3.0 0.00 0.00 0.00 96 1019.1
20210410062913 42 215 0.0 2.0 0.00 0.00 0.00 96 1019.2
20210410061343 42 257 0.0 1.0 0.00 0.00 0.00 96 1019.3
20210410060354 42 246 0.0 0.0 0.00 0.00 0.00 96 1019.3
20210410055857 42 250 0.0 0.0 0.00 0.00 0.00 96 1019.3
20210410054344 42 250 0.0 1.0 0.00 0.00 0.00 96 1019.4
20210410053344 42 224 0.0 1.0 0.00 0.00 0.00 96 1019.7
20210410052759 42 245 0.0 2.0 0.00 0.00 0.00 96 1019.8
20210410051339 43 214 0.0 1.0 0.00 0.00 0.00 96 1019.8
20210410050340 42 240 0.0 2.0 0.00 0.00 0.00 96 1019.9
20210410045849 42 193 0.0 3.0 0.00 0.00 0.00 95 1019.9
20210410044338 43 211 0.0 3.0 0.00 0.00 0.00 95 1019.9
20210410043340 43 200 0.0 2.0 0.00 0.00 0.00 95 1020.0
20210410042718 43 208 0.0 1.0 0.00 0.00 0.00 95 1020.0
20210410041335 42 213 0.0 3.0 0.00 0.00 0.00 95 1020.1
20210410040335 42 210 0.0 2.0 0.00 0.00 0.00 95 1020.2
20210410035854 43 198 0.0 2.0 0.00 0.00 0.00 95 1020.3
20210410034339 43 215 0.0 2.0 0.00 0.00 0.00 95 1020.4
20210410033335 43 203 0.0 2.0 0.00 0.00 0.00 95 1020.5
20210410032844 43 215 0.0 2.0 0.00 0.00 0.00 95 1020.6
20210410031332 44 208 0.0 1.0 0.00 0.00 0.00 95 1020.6
20210410030646 44 210 0.0 1.0 0.00 0.00 0.00 95 1020.7
20210410025925 44 208 0.0 1.0 0.00 0.00 0.00 95 1020.8
20210410024317 43 207 0.0 1.0 0.00 0.00 0.00 94 1020.9
20210410023317 44 203 0.0 2.0 0.00 0.00 0.00 94 1021.0
20210410022652 44 208 0.0 3.0 0.00 0.00 0.00 94 1021.1
20210410021317 44 205 0.0 1.0 0.00 0.00 0.00 94 1021.1
20210410020318 44 204 0.0 1.0 0.00 0.00 0.00 94 1021.1
20210410015742 44 204 1.0 3.0 0.00 0.00 0.00 94 1021.1
20210410014315 45 210 1.0 3.0 0.00 0.00 0.00 93 1021.1
20210410013317 45 217 0.0 2.0 0.00 0.00 0.00 93 1021.2
20210410012657 45 186 0.0 2.0 0.00 0.00 0.00 93 1021.2
20210410011314 45 211 0.0 2.0 0.00 0.00 0.00 92 1021.3
20210410010318 45 203 0.0 2.0 0.00 0.00 0.00 92 1021.2
20210410004313 46 203 0.0 2.0 0.00 0.00 0.00 90 1021.2
20210410003314 46 200 0.0 2.0 0.00 0.00 0.00 89 1021.4
20210410002729 47 191 1.0 4.0 0.00 0.00 0.00 89 1021.3
20210410001313 47 218 0.0 3.0 0.00 0.00 0.00 88 1021.2
20210410000337 48 170 0.0 2.0 0.00 0.00 0.00 87 1021.2
20210409235858 48 193 0.0 1.0 0.00 0.00 0.00 86 1021.1
20210409234314 49 172 0.0 2.0 0.00 0.00 0.00 85 1021.2
20210409233313 49 194 0.0 3.0 0.00 0.00 0.00 84 1021.1
20210409232735 50 191 1.0 3.0 0.00 0.00 0.00 83 1020.9
20210409231317 51 198 1.0 4.0 0.00 0.00 0.00 81 1020.7
20210409230620 51 226 1.0 4.0 0.00 0.00 0.00 80 1020.7
20210409225932 52 218 1.0 4.0 0.00 0.00 0.00 79 1020.6
20210409224313 53 215 1.0 3.0 0.00 0.00 0.00 77 1020.7
20210409223320 53 208 2.0 4.0 0.00 0.00 0.00 76 1020.6
20210409222523 54 201 1.0 5.0 0.00 0.00 0.00 74 1020.5
20210409221313 55 218 1.0 5.0 0.00 0.00 0.00 74 1020.5
20210409220318 56 224 1.0 4.0 0.00 0.00 0.00 72 1020.4
20210409215734 56 208 1.0 4.0 0.00 0.00 0.00 71 1020.4
20210409214337 57 123 1.0 5.0 0.00 0.00 0.00 70 1020.4
20210409213313 58 210 0.0 3.0 0.00 0.00 0.00 69 1020.4
20210409212641 58 167 1.0 5.0 0.00 0.00 0.00 67 1020.4
20210409211308 59 134 3.0 6.0 0.00 0.00 0.00 65 1020.4
20210409210305 61 212 2.0 5.0 0.00 0.00 0.00 63 1020.3
20210409205732 61 224 2.0 5.0 0.00 0.00 0.00 62 1020.3
20210409204305 61 152 2.0 6.0 0.00 0.00 0.00 63 1020.3
20210409203312 62 187 2.0 7.0 0.00 0.00 0.00 63 1020.3
20210409202620 62 101 2.0 6.0 0.00 0.00 0.00 61 1020.3
20210409201306 63 200 1.0 6.0 0.00 0.00 0.00 61 1020.3
20210409200327 64 217 2.0 6.0 0.00 0.00 0.00 60 1020.3
20210409195825 63 205 2.0 5.0 0.00 0.00 0.00 60 1020.3
20210409194259 64 108 2.0 4.0 0.00 0.00 0.00 60 1020.4
20210409193301 63 112 2.0 5.0 0.00 0.00 0.00 59 1020.5
20210409192656 63 210 2.0 5.0 0.00 0.00 0.00 60 1020.6
20210409191304 62 115 4.0 9.0 0.00 0.00 0.00 61 1020.5
20210409190315 63 114 2.0 7.0 0.00 0.00 0.00 61 1020.5
20210409185838 63 117 2.0 4.0 0.00 0.00 0.00 60 1020.5
20210409184301 63 106 3.0 7.0 0.00 0.00 0.00 60 1020.6
20210409183321 63 87 3.0 7.0 0.00 0.00 0.00 62 1020.8
20210409182750 63 105 4.0 9.0 0.00 0.00 0.00 60 1020.9
20210409181301 63 106 3.0 10.0 0.00 0.00 0.00 58 1021.0
20210409180453 64 122 3.0 7.0 0.00 0.00 0.00 58 1021.1
20210409175907 65 138 3.0 7.0 0.00 0.00 0.00 57 1021.1
20210409174306 66 142 2.0 7.0 0.00 0.00 0.00 55 1021.1
20210409173256 66 215 1.0 4.0 0.00 0.00 0.00 57 1021.3
20210409172655 66 135 2.0 6.0 0.00 0.00 0.00 57 1021.4
20210409171253 66 134 2.0 5.0 0.00 0.00 0.00 57 1021.4
20210409170253 66 210 2.0 6.0 0.00 0.00 0.00 58 1021.5
20210409165832 65 108 1.0 5.0 0.00 0.00 0.00 60 1021.5
20210409164257 64 147 1.0 5.0 0.00 0.00 0.00 60 1021.7
20210409163253 64 60 2.0 5.0 0.00 0.00 0.00 60 1021.8
20210409162340 63 229 2.0 6.0 0.00 0.00 0.00 62 1021.8
20210409161247 63 71 2.0 5.0 0.00 0.00 0.00 62 1021.9
20210409160420 62 222 2.0 6.0 0.00 0.00 0.00 63 1022.1
20210409155241 63 115 1.0 4.0 0.00 0.00 0.00 62 1022.1